www.pogodaiklimat.ru

Погода и климат >> Архив погоды >> Аргентина >> Сан-Луис


ПОГОДА в Сан-Луисе

  • Прогноз погоды в Сан-Луисе
  • Монитор погоды в Сан-Луисе

АРХИВ ПОГОДЫ в Сан-Луисе

Время (UTC), дата Ветер
(напр.,м/с)
 
Видим.   Явления Облачность Т
(С)
Тd
(С)
f
(%)
Тe
(С)
Тes
(С)
Комфортность P
(гПа)
Po
(гПа)
Тmin
(С)
Tmax
(С)
R
(мм)
R24
(мм)
S
(см)
21 17.05 Ю 3 20 км 3/0
[Cs]
+21.0 +9.7 48 +23 +23 комфорт 1005.2 925.4
00 18.05 Ю 3 20 км 3/0
[Ac As]
+17.1 +10.2 64 +17 +17 1009.7 928.5 +11.8 +22.7
03 18.05 В 2 20 км 4/4 1200 м
[Sc Ac As]
+14.0 +10.3 78 +13 +13 1011.6 930.9
06 18.05 ЮВ 3 20 км 9/9 1050 м
[Sc Ac As]
+15.4 +10.9 75 +15 +15 1012.3 932.0
09 18.05 Ю 3 20 км 10/8 600 м
[Frnb Ac As]
+14.2 +11.5 84 +13 +13 1014.8 934.0
12 18.05 ЮВ 5 20 км {дождь} 9/8 1050 м
[Sc As op]
+11.8 +3.3 56 +10 +10 1019.4 937.4 +11.7 +17.1 0.0
15 18.05 В 7 20 км 6/6 1050 м
[Sc As op]
+13.9 +0.4 40 +12 +13 1021.1 938.8
18 18.05 В 6 20 км 9/6 900 м
[St As op]
+13.7 +6.0 60 +12 +12 1019.3 937.3
21 18.05 В 3 20 км 4/3 1050 м
[St As op]
+14.4 +5.2 54 +14 +14 1019.3 937.3
00 19.05 ЮВ 3 20 км 3/3 1050 м
[St As op]
+10.9 +2.9 58 +10 +10 1020.9 937.8 +10.9 +15.1
03 19.05 В 2 20 км ясно +10.7 +5.2 69 +9 +9 1020.8 938.1
06 19.05 В 3 20 км 3/0
[Ac As]
+7.4 +4.5 82 +5 +5 1020.5 937.3
09 19.05 С 2 20 км 6/0
[Ac trans]
+7.3 +4.2 81 +6 +6 1018.9 935.8
12 19.05 В 3 20 км 6/0
[Ac trans Cs]
+8.6 +2.9 67 +6 +6 1019.5 936.2 +6.3 +11.7
15 19.05 С 3 20 км 8/3 1200 м
[Sc Ac As Ci sp]
+15.9 +6.6 54 +15 +18 1018.1 935.8
18 19.05 СЗ 4 20 км 9/8 1050 м
[Sc diur, vesp Ac As]
+17.1 +7.3 52 +17 +17 1015.7 933.4
21 19.05 С 2 20 км 9/5 1050 м
[Sc Ac As Cs]
+15.8 +7.5 58 +16 +16 1015.3 932.8
00 20.05 СВ 1 20 км 9/5 1200 м
[Sc Ac As]
+13.3 +9.1 76 +14 +14 1016.2 933.4 +8.6 +18.0
03 20.05 СВ 1 20 км 9/8 600 м
[Cb calv Ac cuf]
+13.2 +8.8 75 +13 +13 1015.1 933.4
06 20.05 СВ 2 20 км 10/10 750 м
[St]
+13.9 +8.1 68 +14 +14 1013.6 932.2
09 20.05 В 1 20 км 10/10 900 м
[St]
+12.8 +7.7 71 +13 +13 1012.9 931.4
12 20.05 Ю 2 10 км 10/8 600 м
[St As trans]
+12.5 +7.8 73 +12 +12 1014.9 932.8 +12.0 +14.5
15 20.05 Ю 3 10 км 10/8 750 м
[St As trans]
+12.8 +7.7 71 +11 +12 1015.9 933.8
18 20.05 ЮВ 5 20 км {морось} 10/9 600 м
[St As trans]
+13.1 +7.6 69 +11 +11 1014.5 932.6 0.0
21 20.05 В 8 20 км в посл. час морось 10/10 450 м
[St]
+9.3 +7.5 89 +5 +5 1016.2 933.4
00 21.05 В 9 20 км в посл. час морось 10/10 360 м
[St]
+7.6 +5.7 88 +2 +2 1019.2 936.0 +7.6 +14.7 0.0
03 21.05 В 12 10 км в посл. час морось 10/10 240 м
[St]
+5.5 +2.0 78 -1 -1 1021.2 937.6
06 21.05 В 8 20 км {морось} 10/10 240 м
[Frnb]
+6.3 +3.1 80 +1 +1 1022.5 938.9 0.1
09 21.05 В 7 20 км {морось} 9/9 450 м
[Frnb]
+6.3 +2.3 76 +2 +2 1023.7 939.4
12 21.05 В 13 7000 м дымка 9/9 300 м
[St]
+6.2 +4.6 89 -1 -1 1025.9 941.3 +5.6 +7.6 0.0
15 21.05 В 7 6000 м дымка 9/9 300 м
[Frnb]
+7.3 +5.3 87 +2 +3 1027.3 941.8
18 21.05 ЮВ 7 15 км 9/8 300 м
[Frnb Ac As]
+8.6 +4.4 75 +5 +5 1026.3 941.8
21 21.05 ЮВ 7 3000 м слаб. морось 10/8 300 м
[Frnb Ac As]
+7.6 +4.5 81 +3 +3 1026.6 941.8
00 22.05 ЮВ 4 4000 м слаб. морось туман 10/10 90 м
[Frnb]
+6.0 +5.1 94 +2 +2 1028.1 943.0 +5.9 +10.4 0.0
03 22.05 ЮВ 6 5000 м слаб. морось туман 10/10 210 м
[Frnb]
+6.1 +4.8 91 +1 +1 1028.4 943.4
06 22.05 ЮВ 5 6000 м слаб. морось туман 10/10 210 м
[Frnb]
+6.1 +5.2 94 +2 +2 1027.8 943.0 0.6
09 22.05 ЮВ 3 2000 м слаб. дождь {морось} туман 10/10 150 м
[Frnb]
+5.6 +4.9 95 +2 +2 1027.5 942.6
12 22.05 ЮВ 4 5000 м слаб. дождь туман 10/10 270 м
[Frnb]
+4.9 +4.4 97 +1 +1 1028.9 943.6 +4.8 +6.1 3
15 22.05 В 5 10 км {дождь} 9/9 450 м
[Frnb]
+7.1 +4.2 82 +3 +4 1028.5 943.6
18 22.05 Ю 2 20 км {дождь} 10/10 600 м
[Frnb]
+7.2 +5.7 90 +5 +5 1026.8 942.0 0.7
21 22.05 СЗ 2 20 км 4/4 360 м
[St Ci sp]
+7.0 +5.0 87 +5 +5 1026.1 941.3
00 23.05 СЗ 2 20 км 6/5 600 м
[St Ac trans]
+6.6 +4.6 87 +4 +4 1027.0 941.8 +4.8 +9.5
03 23.05 С 3 20 км 4/4 600 м
[St]
+3.1 +2.4 95 -1 -1 1026.7 941.4
06 23.05 С 5 20 км 3/3 600 м
[St]
+4.3 +2.6 89 -1 -1 1025.3 940.4
09 23.05 С 5 20 км ясно +4.5 +2.3 86 -0 -0 1024.2 939.4
12 23.05 С 4 20 км ясно +3.3 +0.5 82 -1 -1 1024.8 933.7 +2.1 +6.6 0.7
15 23.05 СВ 12 20 км ясно +15.0 -1.1 33 +13 +13 1024.7 940.8
18 23.05 СЗ 6 20 км ясно +15.9 +0.4 35 +15 +17 1021.1 937.8
21 23.05 СЗ 4 20 км ясно +14.1 +1.7 43 +13 +13 1020.6 937.0
00 24.05 С 3 20 км ясно +8.9 +2.2 63 +7 +7 1021.4 936.9 +3.3 +16.3
03 24.05 С 3 20 км ясно +7.0 -1.1 56 +5 +5 1019.6 936.6
06 24.05 С 2 20 км ясно +7.9 -4.4 41 +7 +7 1018.2 935.6
09 24.05 С 5 20 км ясно +8.2 -2.4 47 +5 +5 1016.8 934.1
12 24.05 С 5 20 км 9/0
[Cs]
+11.1 -4.4 33 +9 +9 1016.8 933.8 +6.2 +11.2
15 24.05 С 7 20 км 9/0
[Cs]
+17.6 -0.1 30 +17 +18 1015.8 933.4
18 24.05 С 6 20 км 9/0
[Cs]
+19.2 -1.4 25 +19 +21 1013.1 931.4

 

Местоположение метеостанции Сан-Луис (Аргентина): широта -33.26 долгота -66.35 высота над уровнем моря 713 м.

В архиве по умолчанию представлена погода в Сан-Луисе за последнюю неделю. Архивные данные за месяц целиком и за предыдущие месяцы, начиная с января 2011 года, Вы можете получить, выбрав интересующий диапазон дат из раскрывающегося списка и нажав кнопку "Ввод!".


*Определитесь, кто Вы:
робот инопланетянин человек

Внимание! Время в таблицах - всемирное. Для получения местного времени необходимо прибавить поправку, которая равна -3 ч.

Смотрите также архив погоды в соседних городах и на ближайших метеорологических станциях:

Погода в Вилья Рейнольдс (Аргентина) (104 км)
Погода в Вилла Долорес (Аргентина) (185 км)
Погода в Сан-Мартине (Аргентина) (193 км)
Погода в Рио-Куарто (Аргентина) (195 км)
Погода в Мендосе (Аргентина) (232 км)
Погода в Сан-Рафаэле (Аргентина) (239 км)
Погода в Сан-Хуане (Аргентина) (283 км)
Погода в Пиларе (Аргентина) (292 км)
Погода в Лабоулайе (Аргентина) (293 км)
Погода в Кордове (Аргентина) (296 км)

Пояснения к столбцам:

Ветер - указаны скорость ветра в м/с - средняя за 10 мин, порывы в срок и между сроками (в фигурных скобках) и направление, откуда дует ветер: С - северный, СВ - северо-восточный, В - восточный, ЮВ - юго-восточный, Ю - южный, ЮЗ - юго-западный, З - западный, СЗ - северо-западный.
Видимость - горизонтальная дальность видимости в метрах или километрах. При видимости от 1 до 10 км при отсутствии осадков обычно наблюдается дымка, при ухудшении видимости до 1 км и менее - туман. В сухую погоду видимость может ухудшаться дымом, пылью или мглою.
Явления - указаны атмосферные явления, наблюдавшиеся в срок или в последний час перед сроком; фигурными скобками обозначены явления, наблюдавшиеся между сроками (за 1-3 часа до срока); квадратными скобками обозначены град или гололедные отложения с указанием их диаметра в мм.
Облачность - указаны через наклонную черту общая и нижняя облачность в баллах и высота нижней границы облаков в метрах; квадратными скобками обозначены формы облаков: Ci - перистые, Cs - перисто-слоистые, Cc - перисто-кучевые, Ac - высококучевые, As - высокослоистые, Sc - слоисто-кучевые, Ns - слоисто-дождевые, Cu - кучевые, Cb - кучево-дождевые. Подробнее классификацию облаков см. в Атласе облаков (PDF).
T - Температура воздуха - температура, измеренная на высоте 2 м над землей.
Td - Температура точки росы - температура, при понижении до которой содержащийся в воздухе водяной пар достигнет насыщения.
f - Относительная влажность воздуха - влажноcть воздуха, измеренная на высоте 2 м над землей.
Te - Эффективная температура - температура, которую ощущает одетый по сезону человек в тени. Характеристика душности погоды. При расчете учитывается влияние влажности воздуха и скорости ветра на теплоощущения человека.
Tes - Эффективная температура на солнце - температура, которую ощущает человек, с поправкой на солнечный нагрев. Характеристика знойности погоды. Зависит от высоты солнца над горизонтом, облачности и скорости ветра. Ночью, в пасмурную погоду, а также при ветре 12 м/с и более поправка равна нулю.
P - Атмосферное давление - приведенное к уровню моря атмосферное давление.
Po - Атмосферное давление - измеренное на уровне метеостанции атмосферное давление.
Tmin - Минимальная температура - минимум температуры воздуха на высоте 2 м над землей.
Tmax - Максимальная температура - максимум температуры воздуха на высоте 2 м над землей.
R - Количество осадков - Количество выпавших осадков за период времени, мм. При наведении курсора мыши на число - период времени, за который выпало указанное количество осадков.
R24 - Количество осадков - Количество выпавших осадков за 24 часа, мм.
S - Снежный покров - Высота снежного покрова, см. При наведении курсора мыши на число - состояние снежного покрова и степень покрытия местности в баллах.